Temp
72 75 78 79 79 79 79 79 79 78 78 79 79 79 79 78 78 78 78 79 79 79 80 79 79 80 79 79 78 78 78 78 78 77 76 77 78 78 78 77 77 76 77
74 77 78 79 79 79 79 78 78 77 78 78 79 79 79 79 79 79 79 79 79 80 80 79 80 80 79 78 77 77 77 76 76 74 73 73 75 77 78 77 76 76 77
75 77 78 78 78 78 78 78 77 77 77 78 78 79 79 79 79 79 79 79 79 79 78 78 79 79 78 77 76 76 77 76 75 74 73 71 71 77 78 76 76 76 78
77 77 77 77 78 78 78 78 77 77 77 78 78 78 78 79 79 79 79 78 78 77 78 77 77 78 77 76 76 76 76 76 75 73 72 74 75 76 76 76 77 78 77
76 77 77 77 77 77 77 77 77 77 77 77 78 77 78 78 79 79 79 78 77 77 76 76 76 76 76 76 76 76 75 75 73 73 72 70 71 75 77 78 77 77 77
76 77 75 76 77 77 77 77 77 77 77 77 77 77 78 78 79 78 77 76 76 76 76 76 76 76 75 75 76 76 75 74 72 68 70 72 71 78 78 77 77 77 76
75 77 76 76 76 76 76 76 76 77 77 77 77 77 77 78 77 77 76 75 75 76 76 76 76 75 75 75 75 75 73 72 67 66 66 68 70 77 77 77 77 76 76
75 76 76 75 76 76 75 76 76 76 77 77 77 77 77 77 76 76 75 75 75 76 76 76 76 75 75 75 75 74 72 71 70 67 69 68 73 77 77 77 76 76 76
76 74 74 74 75 73 74 74 75 76 76 76 76 76 75 75 75 75 75 75 75 75 75 75 75 75 75 75 74 73 72 71 70 72 73 67 73 77 77 76 76 75 76
71 71 72 72 73 73 73 72 73 73 73 74 74 73 71 71 72 73 73 74 75 75 75 74 74 74 74 73 73 72 70 70 69 71 68 68 73 75 76 75 75 75 75
71 71 71 72 72 71 71 72 71 71 71 71 71 69 69 70 71 70 69 71 73 73 74 74 74 73 72 71 71 70 69 69 70 68 68 72 73 74 74 74 74 74 74
64 69 71 73 71 72 75 71 71 72 70 70 70 68 69 68 69 71 68 69 71 71 72 73 73 72 69 69 69 69 70 69 70 69 70 73 74 73 73 73 73 74 74
65 67 71 70 70 70 71 70 69 69 69 69 68 68 68 69 68 67 66 69 65 66 66 68 67 66 63 68 68 64 65 70 68 70 71 72 74 74 74 73 73 73 73
63 66 67 69 69 68 69 68 68 68 68 68 69 68 67 67 67 64 66 65 63 62 61 62 62 63 63 68 67 63 64 68 69 68 69 70 73 74 74 74 73 73 73
62 64 64 65 66 68 68 67 68 68 69 69 68 69 69 67 67 66 66 66 65 63 61 60 62 63 62 64 70 63 67 66 69 69 69 67 70 73 73 75 74 73 72
64 63 64 64 64 66 65 66 66 66 68 68 68 69 69 67 67 68 68 66 65 66 63 63 63 62 63 67 67 64 67 67 67 66 64 63 68 71 73 74 74 73 72
62 63 63 63 64 64 64 64 64 65 68 67 67 67 68 67 67 66 69 69 68 67 66 64 63 63 65 68 66 63 66 64 67 66 66 62 67 67 70 73 73 72 72
59 61 63 69 64 63 63 63 63 63 65 67 66 67 66 67 67 64 66 69 71 69 68 65 64 64 66 65 65 64 63 63 66 66 66 64 62 65 67 70 71 72 72
54 56 58 59 60 61 61 61 61 64 61 65 66 65 66 67 67 67 65 65 67 68 68 67 64 65 63 59 66 63 61 61 63 65 63 63 61 63 63 66 67 68 70
52 53 54 57 58 60 59 59 58 59 59 62 66 65 65 66 66 67 64 63 63 64 66 68 65 63 62 59 65 61 60 61 62 61 61 61 59 62 61 60 62 62 66
47 48 50 53 56 56 55 55 55 59 58 60 63 65 65 65 65 66 66 63 62 62 64 65 64 63 61 59 57 56 56 59 59 59 59 58 58 58 60 60 60 59 62
43 44 47 49 52 55 55 56 57 57 58 62 62 63 65 65 64 65 65 64 62 61 61 63 63 60 59 63 56 51 49 53 56 58 57 58 53 54 56 59 60 60 59
40 43 44 47 50 53 54 56 57 57 57 57 58 59 60 63 63 63 63 63 63 62 61 61 62 62 59 60 62 55 48 48 48 52 55 57 55 53 54 59 59 60 60
38 42 43 45 47 51 53 55 56 58 59 56 58 58 59 61 61 62 62 62 62 63 61 61 62 61 60 58 58 58 58 53 47 45 52 53 56 55 56 56 59 60 60
37 37 40 42 44 46 48 52 54 55 55 56 56 56 58 60 59 60 60 59 59 60 62 62 60 60 62 60 58 55 53 54 53 50 45 49 51 55 52 52 54 59 59
37 36 37 38 40 44 45 47 51 54 55 56 57 57 57 57 58 58 60 60 60 60 59 60 60 60 60 62 61 61 58 53 52 52 47 50 51 49 50 51 52 54 55
MSLP
1010.13 1010.11 1010.23 1010.51 1011.03 1011.40 1011.69 1011.99 1012.22 1012.51 1012.83 1013.11 1013.37 1013.69 1013.91 1014.28 1014.42 1014.66 1014.97 1015.19 1015.44 1015.67 1015.88 1016.00 1016.19 1016.34 1016.56 1016.76 1016.94 1017.12 1017.30 1017.41 1017.59 1017.81 1017.96 1018.08 1018.10 1018.15 1018.27 1018.33 1018.51 1018.75 1018.89
1009.42 1009.95 1010.32 1010.55 1010.96 1011.38 1011.66 1011.99 1012.36 1012.64 1012.96 1013.21 1013.49 1013.77 1014.02 1014.38 1014.72 1014.84 1015.06 1015.25 1015.49 1015.67 1015.88 1016.11 1016.26 1016.48 1016.76 1016.99 1017.21 1017.34 1017.49 1017.63 1017.86 1018.08 1018.20 1018.38 1018.46 1018.46 1018.51 1018.56 1018.87 1018.99 1019.11
1009.49 1009.88 1010.33 1010.43 1010.77 1011.26 1011.63 1011.97 1012.32 1012.72 1013.06 1013.33 1013.50 1013.84 1014.15 1014.36 1014.75 1014.99 1015.20 1015.44 1015.54 1015.70 1015.91 1016.14 1016.31 1016.64 1016.98 1017.27 1017.50 1017.62 1017.66 1017.76 1017.97 1018.18 1018.33 1018.56 1018.57 1018.42 1018.59 1018.93 1019.07 1019.19 1019.39
1009.32 1009.93 1010.33 1010.53 1010.74 1011.07 1011.52 1011.93 1012.24 1012.71 1013.08 1013.36 1013.48 1013.82 1014.22 1014.47 1014.73 1015.03 1015.26 1015.53 1015.77 1015.71 1015.98 1016.29 1016.59 1016.86 1017.19 1017.51 1017.71 1017.86 1017.96 1018.06 1018.27 1018.41 1018.50 1018.68 1018.81 1018.80 1018.93 1019.06 1019.17 1019.41 1019.77
1009.31 1009.79 1010.23 1010.67 1010.88 1011.08 1011.45 1011.82 1012.17 1012.60 1012.99 1013.30 1013.57 1013.87 1014.17 1014.50 1014.79 1015.07 1015.30 1015.62 1015.98 1016.15 1016.38 1016.58 1016.83 1017.14 1017.40 1017.67 1017.87 1018.04 1018.17 1018.29 1018.56 1018.65 1018.84 1018.91 1019.09 1019.13 1019.15 1019.22 1019.50 1019.83 1020.03
1009.34 1009.63 1010.19 1010.55 1010.88 1011.21 1011.48 1011.73 1012.07 1012.44 1012.89 1013.27 1013.56 1013.96 1014.22 1014.48 1014.79 1015.04 1015.40 1015.69 1016.03 1016.35 1016.63 1016.90 1017.16 1017.33 1017.55 1017.75 1017.99 1018.18 1018.34 1018.68 1018.75 1018.83 1019.02 1019.01 1019.26 1019.34 1019.46 1019.63 1019.84 1020.04 1020.29
1009.23 1009.48 1009.99 1010.26 1010.88 1011.23 1011.47 1011.79 1012.07 1012.35 1012.80 1013.16 1013.58 1013.92 1014.19 1014.54 1014.87 1015.16 1015.61 1015.86 1016.20 1016.44 1016.68 1016.97 1017.28 1017.51 1017.66 1017.82 1018.07 1018.31 1018.53 1018.72 1018.99 1019.06 1019.07 1019.27 1019.48 1019.53 1019.74 1019.89 1019.99 1020.35 1020.56
1009.06 1009.45 1009.88 1010.15 1010.55 1011.19 1011.49 1011.80 1012.06 1012.34 1012.70 1013.05 1013.43 1013.82 1014.10 1014.49 1014.82 1015.17 1015.53 1015.96 1016.24 1016.52 1016.82 1017.04 1017.30 1017.55 1017.77 1017.91 1018.14 1018.47 1018.62 1018.76 1019.01 1019.17 1019.19 1019.52 1019.59 1019.72 1019.87 1020.00 1020.26 1020.54 1020.77
1009.03 1009.37 1009.87 1010.24 1010.52 1011.00 1011.40 1011.81 1012.14 1012.32 1012.61 1013.04 1013.34 1013.68 1014.01 1014.39 1014.73 1015.10 1015.55 1015.91 1016.23 1016.57 1016.85 1017.13 1017.35 1017.49 1017.64 1018.01 1018.23 1018.52 1018.64 1018.88 1019.03 1019.20 1019.48 1019.73 1019.67 1019.67 1019.97 1020.19 1020.48 1020.78 1020.91
1009.26 1009.43 1009.92 1010.33 1010.69 1010.96 1011.34 1011.61 1011.98 1012.36 1012.59 1012.85 1013.33 1013.64 1013.94 1014.26 1014.68 1015.16 1015.57 1015.90 1016.27 1016.57 1016.83 1017.22 1017.50 1017.62 1017.79 1018.07 1018.37 1018.71 1018.96 1019.17 1019.37 1019.62 1019.86 1019.90 1019.68 1019.83 1020.15 1020.47 1020.73 1020.91 1021.20
1009.44 1009.51 1010.11 1010.37 1010.63 1010.95 1011.16 1011.48 1011.75 1012.01 1012.41 1012.84 1013.16 1013.60 1013.98 1014.31 1014.64 1015.04 1015.53 1015.93 1016.34 1016.63 1016.87 1017.22 1017.56 1017.85 1017.99 1018.26 1018.54 1018.95 1019.27 1019.43 1019.70 1019.96 1020.08 1020.07 1020.17 1020.19 1020.42 1020.82 1021.07 1021.23 1021.49
1009.72 1009.56 1009.80 1010.05 1010.48 1010.72 1010.96 1011.35 1011.62 1011.90 1012.15 1012.54 1013.06 1013.52 1013.92 1014.35 1014.71 1015.06 1015.47 1015.91 1016.33 1016.64 1016.95 1017.23 1017.55 1017.95 1018.31 1018.46 1018.82 1019.11 1019.32 1019.61 1019.80 1020.07 1020.26 1020.31 1020.36 1020.78 1020.95 1021.23 1021.44 1021.63 1021.72
1009.36 1009.61 1009.27 1009.79 1009.97 1010.43 1010.84 1011.06 1011.50 1011.66 1011.94 1012.29 1012.69 1013.27 1013.71 1014.20 1014.69 1015.09 1015.58 1015.91 1016.37 1016.70 1017.07 1017.27 1017.63 1018.08 1018.47 1018.55 1018.83 1019.17 1019.63 1019.71 1019.99 1020.15 1020.30 1020.55 1020.62 1020.95 1021.23 1021.54 1021.78 1022.00 1022.19
1009.23 1009.30 1009.24 1009.24 1009.60 1009.91 1010.14 1010.73 1011.10 1011.47 1011.74 1012.06 1012.33 1012.77 1013.43 1013.99 1014.46 1015.08 1015.47 1015.85 1016.28 1016.72 1017.16 1017.47 1017.77 1018.10 1018.43 1018.52 1018.72 1019.24 1019.57 1019.87 1020.03 1020.25 1020.30 1020.73 1020.92 1021.03 1021.39 1021.56 1021.90 1022.19 1022.47
1009.15 1009.01 1008.95 1009.04 1009.21 1009.43 1009.62 1010.09 1010.53 1011.04 1011.24 1011.52 1012.01 1012.30 1012.72 1013.50 1014.15 1014.60 1015.15 1015.63 1016.00 1016.44 1016.97 1017.51 1017.72 1018.09 1018.44 1018.62 1018.55 1019.31 1019.37 1019.62 1019.84 1020.20 1020.38 1020.69 1020.97 1021.15 1021.47 1021.44 1021.74 1022.21 1022.58
1008.67 1008.67 1008.56 1008.80 1008.95 1009.05 1009.30 1009.61 1009.97 1010.25 1010.64 1011.09 1011.42 1011.73 1012.17 1012.74 1013.41 1013.95 1014.70 1015.16 1015.77 1016.00 1016.57 1017.12 1017.49 1017.96 1018.33 1018.39 1018.57 1019.20 1019.57 1019.82 1020.08 1020.37 1020.62 1020.93 1020.95 1021.19 1021.44 1021.51 1022.00 1022.29 1022.60
1007.74 1007.90 1008.21 1008.41 1008.60 1008.84 1008.95 1009.19 1009.73 1009.84 1010.10 1010.66 1010.83 1011.25 1011.58 1012.17 1012.71 1013.32 1014.10 1014.55 1015.04 1015.53 1016.07 1016.80 1017.29 1017.66 1018.00 1018.11 1018.64 1019.03 1019.21 1019.82 1020.10 1020.57 1020.65 1021.08 1021.18 1021.40 1021.50 1021.72 1021.98 1022.35 1022.69
1008.41 1008.19 1007.79 1007.89 1008.21 1008.46 1008.69 1008.88 1009.13 1009.64 1009.69 1009.97 1010.23 1010.54 1011.20 1011.68 1012.20 1012.95 1013.53 1013.87 1014.27 1014.99 1015.66 1016.43 1017.01 1017.57 1017.82 1018.26 1018.74 1019.09 1019.35 1019.87 1020.04 1020.41 1020.72 1021.04 1021.36 1021.54 1021.71 1021.74 1021.96 1022.32 1022.65
1009.47 1009.01 1008.90 1008.69 1008.51 1008.13 1008.29 1008.62 1008.89 1009.10 1009.50 1009.51 1009.61 1010.12 1010.47 1011.24 1011.71 1012.33 1013.10 1013.56 1013.77 1014.53 1015.08 1015.94 1016.70 1017.03 1017.80 1018.44 1018.65 1019.39 1019.53 1019.99 1020.17 1020.42 1020.89 1021.03 1021.44 1021.59 1021.87 1021.91 1022.11 1022.25 1022.49
1010.18 1009.93 1009.68 1009.27 1008.95 1008.67 1008.57 1008.57 1008.86 1009.08 1009.09 1009.14 1009.24 1009.48 1010.04 1010.54 1011.32 1011.87 1012.81 1013.39 1013.87 1014.42 1014.87 1015.53 1016.19 1016.89 1017.52 1018.25 1018.84 1019.71 1019.91 1020.08 1020.27 1020.61 1020.94 1021.28 1021.56 1021.71 1022.00 1022.14 1022.38 1022.53 1022.57
1011.18 1010.95 1010.46 1009.97 1009.54 1009.28 1008.86 1008.75 1008.84 1008.94 1009.02 1009.07 1008.98 1008.95 1009.52 1009.93 1010.69 1011.51 1012.31 1013.09 1013.76 1014.22 1014.55 1014.94 1015.69 1016.47 1017.50 1018.13 1019.09 1020.39 1020.77 1020.59 1020.85 1021.04 1021.27 1021.56 1021.77 1021.91 1022.05 1022.16 1022.43 1022.66 1022.82
1012.68 1012.09 1011.35 1010.68 1010.18 1009.60 1009.10 1008.21 1008.31 1008.52 1008.46 1008.48 1008.68 1008.75 1008.88 1009.37 1010.08 1011.09 1011.68 1012.47 1013.44 1014.32 1014.90 1014.67 1015.11 1016.21 1017.11 1017.56 1018.51 1019.78 1020.96 1021.58 1021.42 1021.39 1021.52 1021.77 1022.00 1022.16 1022.19 1022.22 1022.33 1022.60 1022.84
1014.00 1013.49 1012.88 1012.15 1011.09 1010.16 1009.35 1008.26 1007.94 1008.16 1008.30 1008.58 1008.59 1008.73 1008.93 1008.94 1009.71 1010.55 1011.29 1011.90 1012.67 1013.73 1014.72 1014.48 1014.66 1015.30 1016.26 1017.32 1017.36 1018.51 1020.37 1020.82 1021.47 1021.80 1021.73 1021.60 1022.12 1022.32 1022.23 1022.12 1022.29 1022.54 1022.82
1015.58 1014.69 1014.07 1013.09 1012.00 1010.89 1009.64 1008.45 1007.56 1007.47 1007.85 1008.01 1008.28 1008.47 1008.70 1009.06 1009.55 1010.09 1010.81 1011.55 1012.09 1012.79 1013.84 1014.53 1014.76 1015.03 1015.53 1016.80 1017.57 1017.81 1018.24 1018.92 1020.49 1021.83 1021.87 1021.72 1021.71 1021.99 1022.09 1022.16 1022.17 1022.40 1022.71
1016.50 1016.14 1015.37 1014.23 1013.00 1011.78 1010.39 1008.98 1007.85 1007.31 1007.44 1007.67 1008.11 1008.58 1008.70 1009.12 1009.53 1010.10 1010.59 1011.37 1011.91 1012.53 1012.97 1013.74 1014.71 1015.14 1015.09 1016.14 1016.67 1017.45 1018.12 1018.58 1019.03 1020.11 1021.16 1021.68 1021.94 1021.69 1021.80 1022.05 1022.17 1022.15 1022.42
1017.74 1017.07 1016.45 1015.53 1014.28 1012.97 1011.21 1010.08 1008.81 1007.71 1007.38 1007.65 1008.03 1008.66 1009.02 1009.33 1009.77 1010.05 1010.51 1011.07 1011.60 1012.24 1012.78 1013.17 1013.81 1014.64 1015.19 1015.28 1016.12 1016.58 1017.09 1017.64 1018.33 1018.95 1020.02 1020.89 1021.19 1021.58 1021.70 1021.90 1021.98 1022.22 1022.20
Wind_Speed
6 10 18 19 17 15 17 17 16 16 16 16 17 16 16 15 15 15 14 14 14 13 13 14 14 14 15 15 15 14 14 14 15 14 12 11 12 13 14 15 12 11 18
14 12 17 18 17 15 17 17 16 15 15 16 17 17 17 15 14 14 13 13 12 12 13 14 15 14 15 15 14 13 12 14 16 12 11 9 8 9 12 16 15 15 19
15 13 13 17 17 16 17 17 17 16 15 15 16 17 17 17 15 14 13 11 10 9 10 11 15 16 14 14 13 13 14 16 16 14 13 5 5 11 18 16 17 18 19
15 13 12 16 16 16 18 18 18 17 16 15 15 16 17 16 15 14 12 13 10 13 14 16 16 15 14 13 12 12 11 11 12 11 6 7 8 15 17 18 19 19 18
15 13 12 15 16 17 18 18 18 17 16 15 15 16 15 16 15 14 14 14 12 13 14 15 15 13 12 12 11 10 7 5 7 6 5 6 5 12 16 18 17 17 16
13 13 15 17 16 15 16 17 18 17 16 14 14 13 13 14 15 14 14 13 12 14 13 13 11 11 11 10 10 9 6 5 5 4 6 9 6 10 14 16 16 16 19
10 12 14 19 16 16 15 15 16 16 15 14 13 15 14 14 14 14 14 13 12 13 13 12 12 11 11 10 10 9 5 2 4 5 6 6 6 9 12 14 16 18 18
12 13 12 16 17 15 15 14 15 15 15 15 14 14 14 13 12 16 16 13 12 13 13 12 12 13 11 12 13 10 7 5 6 6 7 5 7 10 12 14 16 18 18
9 11 9 9 12 13 13 12 12 13 14 13 13 13 11 11 12 16 14 14 13 12 12 12 11 11 14 13 14 10 9 10 6 6 7 3 4 13 14 15 17 17 18
6 6 9 8 8 9 8 11 11 11 11 12 12 11 11 11 13 13 12 13 13 12 13 13 12 12 11 14 13 12 9 10 7 6 5 4 9 14 15 16 16 17 18
4 9 7 10 9 8 8 8 11 12 12 11 11 11 10 6 9 11 9 12 12 12 14 13 14 12 11 11 12 11 8 5 6 4 4 11 15 16 18 19 20 21 21
2 4 8 10 11 10 8 9 9 8 7 6 6 7 6 6 6 8 9 12 12 12 11 12 13 12 8 4 4 7 3 4 6 4 5 11 17 15 18 18 18 17 20
7 3 5 7 8 8 6 7 4 5 6 6 8 7 7 7 6 5 4 6 5 8 4 6 6 5 6 4 3 3 4 4 3 4 9 10 15 15 16 16 16 14 15
8 8 8 8 8 8 6 7 7 6 6 6 8 10 7 6 6 5 5 6 5 4 5 4 4 5 6 5 7 4 3 5 4 2 6 11 11 14 14 16 15 14 11
8 9 9 8 7 7 7 6 8 8 7 9 8 10 9 8 8 7 7 7 6 5 5 5 5 5 5 5 6 5 4 5 9 5 4 11 11 11 9 10 8 8 9
11 10 10 8 8 7 6 6 5 6 8 8 8 10 12 9 9 9 9 8 7 7 6 6 6 5 5 5 5 6 6 5 5 5 4 4 9 12 7 9 8 11 13
9 11 10 9 8 8 7 6 5 5 7 7 8 9 13 11 11 9 10 9 9 7 9 7 5 5 6 4 4 5 4 5 7 6 6 4 5 6 10 12 16 15 13
6 5 8 8 9 8 7 6 5 5 5 8 7 8 11 12 12 8 8 9 10 9 8 7 7 7 7 6 4 3 3 5 7 6 5 5 3 3 5 12 16 14 14
11 10 8 7 6 7 7 5 6 7 5 7 8 7 12 11 11 11 6 6 9 9 9 9 6 9 6 4 7 3 3 5 5 5 5 6 5 4 3 6 11 12 13
14 12 10 8 7 5 3 3 2 4 4 4 7 8 11 10 12 11 6 5 4 7 8 9 10 7 7 5 7 5 4 4 5 4 6 3 4 5 5 5 4 3 8
16 15 14 12 12 7 2 3 3 6 4 4 7 12 12 12 12 12 9 7 5 4 9 12 10 12 6 5 7 6 5 5 4 4 3 3 4 3 5 5 4 3 5
16 16 17 16 14 9 4 3 3 4 3 5 6 8 11 13 12 11 12 11 9 4 3 11 12 7 3 9 5 4 3 2 3 2 3 3 5 3 4 5 6 6 5
18 18 16 16 14 10 10 4 2 3 2 2 2 4 5 11 11 11 11 11 12 9 6 7 9 10 8 6 13 6 3 4 3 1 3 5 5 4 3 5 6 6 6
19 17 17 17 15 11 12 6 6 7 7 3 5 4 5 9 10 9 10 10 11 11 12 8 9 9 9 10 5 3 2 6 5 2 2 3 6 6 6 4 6 7 7
18 19 18 18 15 15 13 11 4 5 4 4 4 6 5 5 7 10 10 10 9 7 12 13 8 8 10 10 8 4 2 2 3 3 3 3 2 5 6 5 4 7 8
18 18 17 20 18 18 15 14 10 4 4 6 5 6 4 3 3 5 9 9 10 9 10 10 12 11 10 10 10 8 7 5 5 4 3 5 7 4 3 4 6 4 5
Wind_Direction
146 153 150 149 151 151 149 146 142 139 137 135 135 132 129 126 125 126 127 127 135 136 135 132 124 115 109 104 103 105 107 107 104 100 97 105 116 114 100 105 97 100 101
143 150 152 150 153 156 157 150 145 143 143 141 141 141 138 135 135 135 138 140 144 152 150 134 131 124 114 106 99 106 116 117 116 100 102 96 100 113 123 109 106 105 96
143 150 153 152 151 157 159 153 149 149 149 149 148 148 148 144 144 142 141 146 128 154 155 145 140 124 115 108 107 103 112 115 116 116 103 92 96 116 118 115 108 101 97
146 152 156 154 153 153 157 157 153 156 156 156 153 150 155 153 147 146 135 127 130 115 125 130 127 123 121 119 117 116 121 118 119 96 92 92 93 109 113 110 103 100 101
146 156 157 158 156 155 161 160 158 160 161 162 162 158 161 158 156 155 143 129 128 111 111 116 122 125 128 127 128 131 142 127 66 36 94 95 91 101 103 103 100 105 107
151 154 161 159 160 158 161 163 162 163 166 168 164 161 164 165 165 159 148 127 131 130 126 125 125 130 130 132 140 143 147 76 74 38 106 101 91 102 105 108 112 112 110
151 160 167 161 163 164 162 161 167 165 169 168 165 167 171 177 173 156 143 130 128 137 136 135 136 142 146 144 139 137 115 130 88 111 98 99 103 122 122 121 118 120 115
148 156 166 165 161 165 170 166 168 167 167 168 167 173 178 180 174 158 144 139 137 141 146 144 145 153 163 154 131 132 134 121 112 98 94 91 112 139 138 134 128 128 118
141 148 162 167 162 166 168 170 172 170 167 166 166 171 169 172 169 165 149 146 145 146 149 148 150 156 162 149 135 127 87 88 87 96 93 82 135 150 148 139 135 128 123
133 145 153 161 168 173 176 173 174 173 170 163 164 164 161 156 152 151 147 150 150 151 150 151 147 143 140 139 134 112 96 93 89 98 93 88 106 138 138 134 132 124 118
147 154 162 164 169 173 176 185 182 175 170 169 165 160 152 150 152 149 151 152 150 139 146 152 150 145 141 139 132 129 119 109 102 102 102 101 96 112 122 121 116 110 104
239 191 161 170 177 179 186 185 183 179 174 164 160 155 149 149 149 153 153 154 151 148 149 156 151 151 136 137 140 139 106 132 127 120 116 120 107 105 106 109 112 114 111
212 224 214 165 182 179 196 178 188 184 175 172 161 161 157 157 159 150 150 158 147 145 152 152 142 137 147 150 143 137 133 136 130 143 132 128 124 126 122 121 118 115 116
209 218 222 223 176 185 174 173 188 178 174 178 179 167 163 162 161 152 160 161 155 151 150 145 141 147 161 174 152 165 138 165 144 129 142 141 137 133 139 133 124 123 124
209 220 212 217 216 181 167 172 176 180 180 183 177 179 169 168 166 157 164 165 166 157 155 160 160 160 170 185 167 130 94 129 143 144 136 150 153 141 171 156 136 146 152
217 218 219 211 206 202 177 174 175 173 184 185 187 180 179 166 164 167 170 170 177 170 161 165 172 160 171 163 152 154 115 129 123 124 126 132 153 153 141 137 157 158 150
209 210 210 201 197 194 198 194 173 184 183 187 185 183 177 175 171 164 174 172 177 171 161 163 160 151 151 146 154 138 143 130 143 153 138 138 126 140 163 178 162 155 151
353 275 220 207 194 200 198 208 219 182 188 190 187 174 175 179 176 170 175 175 174 167 171 163 155 153 155 144 148 151 180 133 132 134 151 138 143 148 194 169 159 155 155
22 16 13 2 308 210 195 198 211 241 181 189 176 170 170 176 174 174 173 175 164 170 171 164 165 155 153 149 140 148 199 126 125 127 125 138 148 144 149 192 166 166 171
20 12 4 358 347 305 242 194 222 222 222 188 181 167 167 169 174 171 164 165 149 163 175 166 157 160 153 155 121 84 49 99 116 125 122 111 116 144 146 131 131 128 162
19 7 358 353 341 344 248 199 208 215 198 187 184 169 169 165 168 178 169 153 151 180 180 159 152 153 141 135 112 98 39 61 98 100 105 126 119 146 148 139 138 127 121
9 4 354 349 338 320 280 214 184 180 186 191 180 171 168 164 169 175 176 172 166 182 213 161 155 146 106 168 138 106 129 82 44 114 135 142 150 161 158 163 150 153 154
11 2 352 340 333 325 309 258 157 114 92 121 181 164 176 163 167 172 176 175 170 170 187 160 160 164 162 184 163 140 141 197 131 270 197 160 164 184 184 176 160 162 160
5 0 354 348 344 336 325 305 199 194 185 185 165 168 159 166 159 169 171 170 180 174 171 183 183 179 148 182 176 161 143 137 163 166 260 234 177 188 190 196 175 174 171
13 8 353 349 354 349 349 340 319 171 160 167 144 141 135 136 150 162 174 170 163 177 179 170 187 182 174 169 176 151 149 156 124 137 168 194 247 209 194 186 193 184 180
16 8 358 355 355 351 6 355 341 18 165 143 124 139 133 101 122 148 163 166 170 172 173 172 172 186 186 181 191 194 187 170 177 150 127 183 202 218 185 207 184 205 187